Location: Unspecified
(0.0000°N, 0.0000°E)
Time: 01:29:26
(UTC+00:00)

A-11 Canister half - Pass Details

Date: 23 November 2019
Orbit: 1515 x 1685 km, 47.2° (Epoch: 10 December)

Event Time Altitude Azimuth Distance (km) Brightness Sun altitude
Exits shadow 01:41:15 24° 133° (SE) 2,801 10.6 -55.3°
Drops below altitude 10° 01:44:20 10° 136° (SE) 3,744 11.4 -54.7°
Sets 01:47:22 0° 137° (SE) 4,709 12.1 -54.1°
